Location: Brooks Farm Pond
(32.9618°N, 86.0700°W)
Time: 23:23:57
(UTC+00:00)

Okean O Rocket - Pass Details

Date: 29 October 2020
Orbit: 623 x 644 km, 98.2° (Epoch: 28 November)

Event Time Altitude Azimuth Distance (km) Brightness Sun altitude
Rises 23:47:41 0° 185° (S) 2,908 5.2 -11.6°
Reaches altitude 10° 23:50:01 10° 193° (SSW) 2,001 4.5 -12.0°
Maximum altitude 23:54:02 37° 261° (W) 981 3.3 -12.9°
Drops below altitude 10° 23:58:05 10° 329° (NNW) 2,003 4.5 -13.7°
Sets 00:00:25 0° 338° (NNW) 2,911 5.2 -14.2°
